Regional Weather Roundup
Issued by NWS

Home | Current Version | Previous Version | Graphics & Text | Print | Product List | Glossary On
Versions: 1 2 3 4 5 6 7 8 9 10 11 12 13 14 15 16 17 18 19 20 21 22 23 24 25 26 27 28 29 30 31 32 33 34 35 36 37 38 39 40 41 42 43 44 45 46 47 48 49 50
000
ASUS43 KBIS 240302
RWRND

NORTH DAKOTA REGIONAL WEATHER ROUNDUP
NATIONAL WEATHER SERVICE BISMARCK ND
1000 PM CDT TUE AUG 23 2016

NOTE: "FAIR" INDICATES FEW OR NO CLOUDS BELOW 12,000 FEET WITH NO
SIGNIFICANT WEATHER AND/OR OBSTRUCTIONS TO VISIBILITY.


NDZ001>003-009>011-017-240400-
NORTHWEST NORTH DAKOTA

CITY           SKY/WX    TMP DP  RH WIND       PRES   REMARKS
WILLISTON      CLEAR     67  44  43 W12       29.89S
MINOT          CLEAR     69  44  40 W10       29.84R
MINOT AFB      CLEAR     63  46  54 W10       29.83R
$$

NDZ018>021-031>035-040>046-240400-
SOUTHWEST NORTH DAKOTA

CITY           SKY/WX    TMP DP  RH WIND       PRES   REMARKS
BISMARCK       CLEAR     67  45  45 NW5       29.90R
DICKINSON      CLEAR     56  37  49 W7        29.94R
GARRISON         N/A     60  43  53 NW7       29.88R
HETTINGER ARPT CLEAR     53  41  63 W6        29.99R
$$

NDZ004>008-012>016-024-026-027-054-240400-
NORTHEAST NORTH DAKOTA

CITY           SKY/WX    TMP DP  RH WIND       PRES   REMARKS
GRAND FORKS    PTCLDY    71  67  87 W5        29.73R
GRND FRKS AFB  PTCLDY    73  67  80 NW10      29.76R
DEVILS LAKE    CLEAR     61  53  75 W6        29.81R
$$

NDZ022-023-025-028>030-036>039-047>053-240400-
SOUTHEAST NORTH DAKOTA

CITY           SKY/WX    TMP DP  RH WIND       PRES   REMARKS
FARGO          MOCLDY    77  65  66 SW12      29.76R
JAMESTOWN      PTCLDY    63  52  67 NW6       29.83R
$$





USA.gov is the U.S. government's official web portal to all federal, state and local government web resources and services.